Back to catalog

STARLINK-34488

AliveCommunicationsVLEO
NORAD 64604·PAYLOAD·🇺🇸 United States

Launched Jun 25, 2025 from Cape Canaveral Space Force Station

Loading…

Next Passes (next 24 hours)

TLE

FreshSource: CelesTrak SupGP

Epoch: Sep 14, 2026, 15:22 UTC

1 64604C 25137L   26257.64076389  .00071328  00000+0  21077-2 0  2579
2 64604  53.1595 176.8618 0001263  95.9642 287.2957 15.34350931    19

Track STARLINK-34488 in real time with AllMySat

Download on the App Store